Zurück zum Katalog

FENGYUN 1C DEB

AktivPO
NORAD 30521·DEBRIS·🇨🇳 China

Gestartet May 10, 1999 von Taiyuan Satellite Launch Center

Loading…

Nächste Überflüge (nächste 24 Stunden)

TLE

AktuellSource: Space-Track

Epoche: Sep 14, 2026, 10:01 UTC

1 30521U 99025AJK 26257.41798203  .00002049  00000-0  38936-3 0  9999
2 30521  99.0237  60.9517 0133655 124.5052 236.8851 14.59848689 36007

Verfolge FENGYUN 1C DEB in Echtzeit mit AllMySat

Download on the App Store